Content
SEND FEEDBACK

Daily
Averages
Monthly
Summary
Norway

ALESUND, NORWAY


Home > Europe > Norway
Elevation: 72 feet     Latitude: 62 34N     Longitude: 006 07E

WEATHER
 
SELECT A DAY
Number of Records: 194,652;   Date Range: 7/2/96 - 9/15/14
 
SHARE

PRINT THIS DATA

[ ← Previous Day ]
WEATHER ALMANAC - JANUARY 31, 2013
[ Next Day → ]
[ °C ]   °F
Weather ElementAverageHighLow
Temperature35.6 °F41 °F (1:20 am)32 °F (7:50 pm)
Dewpoint31.6 °F34 °F (1:00 am)28.4 °F (3:50 am)
Humidity85.2 %100 % (7:50 pm)70 % (1:20 am)
Barometer29.20 in29.36 in (11:20 pm)28.88 in (12:50 am)
Wind Speed8.7 mph25.3 mph (12:50 am)
Wind Gust36.8 mph (12:50 am)
Weather ElementAverage
Visibility6.1 mi
Wind DirectionWNW (282.5 °)

Weather ElementTotal
Precipitation---
Heating Degree Days28.5 (Base 65)
Averaged from 51 records on January 31, 2013
WEATHER CONDITIONS BREAKOUT
WIND DIRECTION BREAKOUT
WEATHER BY HOUR - JANUARY 31, 2013
[ °C ]   °F
Local TimeTemperatureDewpointHumidityBarometerVisibilityWind DirectionWind SpeedGust SpeedPrecipitationEventsConditions
12:50 AM39.2 °F33.8 °F81 %28.88 in6.2 miNorth (10°)25.3 mph36.8 mphRainLight Rain
1:00 AM39.0 °F34.0 °F74 %28.91 inNNE (20°)24.6 mph
1:20 AM41.0 °F32.0 °F70 %28.91 in6.2 miNorth (360°)21.9 mphMostly Cloudy
1:50 AM41.0 °F32.0 °F70 %28.94 in6.2 miNorth (360°)19.6 mphPartly Cloudy
2:20 AM41.0 °F33.8 °F76 %28.97 in6.2 miNorth (350°)19.6 mphScattered Clouds
2:50 AM39.2 °F32.0 °F75 %29.00 in6.2 miNNW (340°)17.3 mph
3:20 AM39.2 °F30.2 °F70 %29.03 in6.2 miNNW (340°)12.7 mph
3:50 AM37.4 °F28.4 °F70 %29.06 in6.2 miNW (320°)12.7 mph
4:20 AM37.4 °F30.2 °F75 %29.09 in3.1 miNNW (330°)8.1 mphRainLight Rain
4:50 AM37.4 °F32.0 °F81 %29.09 in6.2 miNNW (340°)12.7 mphScattered Clouds
5:20 AM37.4 °F30.2 °F75 %29.12 in6.2 miNorth (350°)10.4 mphPartly Cloudy
5:50 AM37.4 °F30.2 °F75 %29.12 in6.2 miNNW (330°)5.8 mphScattered Clouds
6:20 AM37.4 °F32.0 °F81 %29.12 in3.1 miNW (320°)9.2 mphRain-SnowRain
6:50 AM37.4 °F32.0 °F81 %29.15 in6.2 miNNW (340°)9.2 mphMostly Cloudy
7:00 AM38.0 °F32.0 °F71 %29.16 in19.0 miNNW (340°)11.2 mphSnowLight Snow Showers
7:20 AM37.4 °F32.0 °F81 %29.15 in6.2 miNNW (340°)8.1 mphScattered Clouds
7:50 AM37.4 °F32.0 °F81 %29.18 in6.2 miNNW (340°)11.5 mphScattered Clouds
8:20 AM35.6 °F32.0 °F87 %29.18 in6.2 miNNW (340°)10.4 mphScattered Clouds
8:50 AM35.6 °F32.0 °F87 %29.18 in6.2 miNNW (340°)6.9 mphMostly Cloudy
9:20 AM37.4 °F28.4 °F70 %29.21 in6.2 miNorth (350°)4.6 mphScattered Clouds
9:50 AM35.6 °F28.4 °F75 %29.21 in6.2 miNW (320°)5.8 mphMostly Cloudy
10:20 AM37.4 °F32.0 °F81 %29.21 in6.2 miNW (320°)5.8 mphMostly Cloudy
10:50 AM33.8 °F32.0 °F93 %29.24 in1.4 miNNW (330°)9.2 mphSnowLight Snow
11:20 AM33.8 °F32.0 °F93 %29.24 in6.2 miNNW (340°)4.6 mphSnowLight Snow
11:50 AM33.8 °F32.0 °F93 %29.24 in6.2 miWNW (290°)4.6 mphScattered Clouds
12:20 PM35.6 °F32.0 °F87 %29.24 in6.2 miWNW (300°)10.4 mphScattered Clouds
12:50 PM35.6 °F32.0 °F87 %29.24 in6.2 miWest (280°)9.2 mphScattered Clouds
1:00 PM35.0 °F33.0 °F87 %29.27 in16.0 miWNW (290°)8.9 mphPartly Cloudy
1:20 PM33.8 °F32.0 °F93 %29.27 in6.2 miWNW (290°)5.8 mphScattered Clouds
1:50 PM37.4 °F32.0 °F81 %29.27 in6.2 miWNW (300°)4.6 mphScattered Clouds
2:20 PM35.6 °F32.0 °F87 %29.27 in6.2 miSW (230°)6.9 mphMostly Cloudy
2:50 PM35.6 °F32.0 °F87 %29.27 in5.6 miWNW (290°)9.2 mphSnowLight Snow Showers
3:20 PM33.8 °F32.0 °F93 %29.27 in6.2 miWest (280°)4.6 mphMostly Cloudy
3:50 PM33.8 °F32.0 °F93 %29.27 in6.2 miSW (220°)3.5 mphScattered Clouds
4:20 PM33.8 °F32.0 °F93 %29.30 in6.2 miSW (220°)5.8 mphScattered Clouds
4:50 PM33.8 °F32.0 °F93 %29.30 in2.5 miWest (260°)5.8 mphSnowLight Snow Showers
5:20 PM33.8 °F32.0 °F93 %29.30 in6.2 miSW (220°)9.2 mphScattered Clouds
5:50 PM33.8 °F32.0 °F93 %29.30 in6.2 miSW (230°)8.1 mphScattered Clouds
6:20 PM33.8 °F32.0 °F93 %29.30 in2.5 miWest (270°)4.6 mphSnowLight Snow Showers
6:50 PM33.8 °F32.0 °F93 %29.30 in6.2 miWest (260°)4.6 mphSnowLight Snow Showers
7:00 PM33.0 °F32.0 °F92 %29.32 in4.0 miWSW (250°)4.5 mphSnowLight Snow Showers
7:20 PM33.8 °F32.0 °F93 %29.30 in6.2 miSW (230°)8.1 mphMostly Cloudy
7:50 PM32.0 °F32.0 °F100 %29.30 in5.6 miSW (220°)8.1 mphMostly Cloudy
8:20 PM32.0 °F32.0 °F100 %29.30 in6.2 miSSW (210°)9.2 mphScattered Clouds
8:50 PM33.8 °F32.0 °F93 %29.33 in6.2 miNW (310°)3.5 mphScattered Clouds
9:20 PM32.0 °F30.2 °F93 %29.33 in6.2 miWSW (240°)4.6 mphScattered Clouds
9:50 PM33.8 °F30.2 °F87 %29.33 in6.2 miNNW (330°)4.6 mphScattered Clouds
10:20 PM32.0 °F28.4 °F87 %29.33 in6.2 miWNW (290°)2.3 mphMostly Cloudy
10:50 PM33.8 °F32.0 °F93 %29.33 in6.2 miNNW (330°)3.5 mphOvercast
11:20 PM32.0 °F30.2 °F93 %29.36 in0.9 miWNW (300°)1.2 mphSnowLight Snow
11:50 PM32.0 °F30.2 °F93 %29.36 in6.2 miCalmSnowLight Snow
Hourly data recorded from ENAL, located miles away from Alesund, Norway







STORIES FROM OUR PARTNERS